User: anonymous   Login
Location: Unspecified
(0.0000°N, 0.0000°E)
Time: 06:42:55
(UTC+00:00)
Language:

BIRD BB - Orbit

View from above orbital plane
View from above orbital plane
View from above satellite
View from above satellite

Ground track
Ground track

The orbit data is extracted from the following two-line orbital elements,

1 42823U 98067MX  19082.83422199  .00107103  15467-4  32187-3 0  9990
2 42823  51.6274   0.1705 0005570 167.3412 192.7736 15.92131141 97942
Epoch (UTC): 23 March 2019 20:01:16
Eccentricity: 0.0005570
inclination: 51.6274°
perigee height: 292 km
apogee height: 300 km
right ascension of ascending node: 0.1705°
argument of perigee: 167.3412°
revolutions per day: 15.92131141
mean anomaly at epoch: 192.7736°
orbit number at epoch: 9794

The dashed part of the orbit path shows where the satellite is in the earth's shadow,  

DLR